Starlink 4573

operational
NORAD ID: 53623 Int'l Des: 2022-104 Owner: SPXS Country: US Constellation: starlink
LEOCIRCULAR

Über Starlink 4573

Beschreibung wird geladen...

Live-Position

3D-Globus wird geladen...

Nächste Überflüge

Höhenverlauf

Altitude vs Time

uPlot chart will show altitude changes over time

Zweizeiliger Elementsatz

1 53623U 22104AM 26062.57505864 -.00004049 00000-0 -23637-3 0 9997
2 53623 53.2169 261.4470 0001192 90.5678 269.5451 15.08849688194822
Epoch: 3. März 2026 • Age: 26 hours

Aktueller Status

Höhe 542.0 km
Geschwindigkeit 7.60 km/s
Subsatellitenpunkt 36.68°N, 138.88°W
Startdatum 28. Aug. 2022
Alter 3.5 years
Typ internet

Technische Details

Klassifizierung Payload
Masse 300.00 kg
Trockenmasse 290.00 kg
Gesamtmasse 300.00 kg
Länge 0.20 m
Durchmesser 2.80 m
Spannweite 9.00 m
Form Box + pan
Hersteller SPXS
Bus-Typ Starlink
Phasenstatus In Orbit
Besitzer/Staat SPXS/US

Große Konstellationen

Loading constellations...